Weather Roundup
Issued by NWS Chicago, IL

Home | Current Version | Previous Version | Text Only | Print | Product List | Glossary Off
Versions: 1 2 3 4 5 6 7 8 9 10 11 12 13 14 15 16 17 18 19 20 21 22 23 24 25 26 27 28 29 30 31 32 33 34 35 36 37 38 39 40 41 42 43 44 45 46 47 48 49 50

000
NZUS59 KLOT 072308
HRRLOT

CHICAGO AREA WEATHER ROUNDUP
NATIONAL WEATHER SERVICE CHICAGO/ROMEOVILLE IL
600 PM CDT TUE JUL 07 2015

NOTE: "FAIR" INDICATES FEW OR NO CLOUDS BELOW 12,000 FEET WITH NO
SIGNIFICANT WEATHER AND/OR OBSTRUCTIONS TO VISIBILITY.

* THESE STATIONS ARE NOT UNDER NWS QUALITY CONTROL. THEY ALSO MAY NOT
  REPORT WEATHER SUCH AS PRECIPITATION OR FOG.

ILZ005-006-012>014-019>023-080000-
NORTHEAST ILLINOIS

CITY           SKY/WX    TMP DP  RH WIND       PRES   REMARKS
OHARE          MOSUNNY   63  47  55 NE14      30.06S
MIDWAY         MOSUNNY   65  47  52 NE18      30.06S
AURORA         MOSUNNY   69  52  54 NE9       30.05S
LANSING*       SUNNY     63  45  52 NE13G25   30.06S
JOLIET*        SUNNY     69  53  55 NE5       30.06R
WAUKEGAN       SUNNY     60  48  64 NE9       30.07S
DUPAGE AIRPORT SUNNY     65  48  54 NE12      30.05S
WHEELING       SUNNY     62  47  57 NE9       30.08S
KANKAKEE*      MOSUNNY   66  53  61 NE9G16    30.05F
MORRIS*        MOSUNNY   70  53  55 CALM      30.03S
LEWIS AIRPORT* SUNNY     66  48  53 NE12      30.06R
NORTHERLY IS     N/A     61  50  67 N8          N/A
$$

WIZ051-052-058>065-066-070>072-080000-
SOUTHEAST WISCONSIN

CITY           SKY/WX    TMP DP  RH WIND       PRES   REMARKS
MILWAUKEE      MOSUNNY   61  48  62 NE8       30.08S
KENOSHA*       SUNNY     63  49  60 E10       30.08S
RACINE*        SUNNY     62  48  60 N12       30.09S
BURLINGTON     MOSUNNY   64  51  63 E6        30.07S
WAUKESHA       PTSUNNY   63  50  63 E10       30.09R
WEST BEND      CLOUDY    63  48  59 E8        30.08R
$$

INZ001>003-010>013-019-020-080000-
NORTHWEST INDIANA

CITY           SKY/WX    TMP DP  RH WIND       PRES   REMARKS
GARY*          MOSUNNY   64  50  59 NE14G30   30.07S
MICHIGAN CITY* NOT AVBL
RENSSELAER*    NOT AVBL
VALPARAISO     SUNNY     64  48  56 N16G24    30.04S
$$

LMZ740>746-080000-
SOUTHERN LAKE MICHIGAN

STATION/POSITION TIME  SKY/WX   TEMP WIND        PRES    VSBY
                                AIR  DIR/SP/G
                 (UTC)          (F)  (DEG/KT/KT) (MB)    (MI)
HARRISON CRIB    2200            58   20/ 17/ 19   N/A
BURNHAM HARBOR   2300            61  360/  8/ 14   N/A
CALUMET HARBOR   2200            62  360/ 13/ 17   N/A
BURNS HARBOR     2200            62   30/ 21/ 25 1017.9R
MICHIGAN CITY    2200            61  360/ 26/ 31   N/A
$$

ABBREVIATIONS USED IN REMARKS
   TC - TEMPERATURE IN CELSIUS
  WCI - WIND CHILL INDEX
   HX - HEAT INDEX
  VSB - VISIBILITY
$$



USA.gov is the U.S. government's official web portal to all federal, state and local government web resources and services.